Terug naar catalogus

KUIPER-00375

ActiefCommunicatieLEO
NORAD 68868·PAYLOAD·🇺🇸 United States

Gelanceerd Apr 28, 2026 vanaf Cape Canaveral Space Force Station

Loading…

Volgende Passages (komende 24 uur)

TLE

VersSource: CelesTrak SupGP

Epoch: Sep 14, 2026, 22:10 UTC

1 68868C 26095E   26257.92395833 -.00017785  00000+0 -23283-2 0  2578
2 68868  51.9000 201.3493 0000891  81.1795  87.8364 14.79944817    15

Volg KUIPER-00375 in realtime met AllMySat

Download on the App Store